Time,TemperatureF,DewpointF,PressureIn,WindDirection,WindDirectionDegrees,WindSpeedMPH,WindSpeedGustMPH,Humidity,HourlyPrecipIn,Conditions,Clouds,dailyrainin,SoftwareType,DateUTC
2013-09-14 00:00:00,63.1,56.9,29.93,West,277,0.0,8.3,80,0.00,,BKN090,0.00,VWS V14.00,2013-09-14 04:00:00,
2013-09-14 00:20:00,61.5,55.8,29.93,West,267,0.0,6.9,82,0.00,,BKN090,0.00,VWS V14.00,2013-09-14 04:20:00,
2013-09-14 00:40:00,59.8,54.6,29.93,West,271,6.2,8.1,83,0.00,,BKN090,0.00,VWS V14.00,2013-09-14 04:40:00,
2013-09-14 01:00:00,59.3,54.2,29.94,NW,311,4.5,7.3,83,0.00,,BKN075,0.00,VWS V14.00,2013-09-14 05:00:00,
2013-09-14 01:20:00,59.2,54.3,29.94,NW,319,3.5,11.2,84,0.00,,BKN075,0.00,VWS V14.00,2013-09-14 05:20:00,
2013-09-14 01:40:00,58.8,54.0,29.95,NW,318,0.0,10.4,84,0.00,,BKN075,0.00,VWS V14.00,2013-09-14 05:40:00,
2013-09-14 02:00:00,58.9,54.1,29.95,NW,315,2.5,6.9,84,0.00,,FEW085,0.00,VWS V14.00,2013-09-14 06:00:00,
2013-09-14 02:20:00,57.9,53.9,29.95,WNW,295,0.0,7.1,86,0.00,,FEW085,0.00,VWS V14.00,2013-09-14 06:20:00,
2013-09-14 02:40:00,56.9,53.6,29.96,WNW,295,0.0,0.0,89,0.00,,FEW085,0.00,VWS V14.00,2013-09-14 06:40:00,
2013-09-14 03:00:00,56.0,53.5,29.96,West,278,0.0,6.0,91,0.00,,FEW075,0.00,VWS V14.00,2013-09-14 07:00:00,
2013-09-14 03:20:00,55.2,53.0,29.96,SSW,197,0.0,4.9,92,0.00,,FEW075,0.00,VWS V14.00,2013-09-14 07:20:00,
2013-09-14 03:40:00,56.8,54.7,29.96,West,277,0.0,4.4,92,0.00,,FEW075,0.00,VWS V14.00,2013-09-14 07:40:00,
2013-09-14 04:00:00,54.5,52.8,29.96,West,277,0.0,0.0,94,0.00,,FEW050,0.00,VWS V14.00,2013-09-14 08:00:00,
2013-09-14 04:20:00,54.2,53.0,29.97,WSW,245,0.0,2.9,96,0.00,,FEW050,0.00,VWS V14.00,2013-09-14 08:20:00,
2013-09-14 04:40:00,53.9,53.1,29.97,WSW,243,0.0,5.2,97,0.00,,FEW050,0.00,VWS V14.00,2013-09-14 08:40:00,
2013-09-14 05:00:00,53.9,53.2,29.98,WSW,243,0.0,0.0,98,0.00,,SCT034,0.00,VWS V14.00,2013-09-14 09:00:00,
2013-09-14 05:20:00,53.6,53.0,29.99,WSW,243,0.0,0.0,98,0.00,,SCT034,0.00,VWS V14.00,2013-09-14 09:20:00,
2013-09-14 05:40:00,55.2,54.6,29.99,WSW,243,0.0,0.0,98,0.00,,SCT034,0.00,VWS V14.00,2013-09-14 09:40:00,
2013-09-14 06:00:00,53.3,52.5,30.00,WSW,243,0.0,0.0,97,0.00,,SCT038,0.00,VWS V14.00,2013-09-14 10:00:00,
2013-09-14 06:20:00,53.0,52.7,30.01,WSW,243,0.0,0.0,99,0.00,,SCT038,0.00,VWS V14.00,2013-09-14 10:20:00,
2013-09-14 06:40:00,51.7,51.7,30.02,WSW,243,0.0,0.0,100,0.00,,SCT038,0.00,VWS V14.00,2013-09-14 10:40:00,
2013-09-14 07:00:00,52.0,52.0,30.03,WSW,243,0.0,0.0,100,0.00,,BKN038,0.00,VWS V14.00,2013-09-14 11:00:00,
2013-09-14 07:20:00,51.9,51.9,30.03,WNW,291,0.0,4.3,100,0.00,,BKN038,0.00,VWS V14.00,2013-09-14 11:20:00,
2013-09-14 07:40:00,52.2,52.2,30.04,NW,308,4.8,5.8,100,0.00,,BKN038,0.00,VWS V14.00,2013-09-14 11:40:00,
2013-09-14 08:00:00,53.3,53.3,30.04,WNW,283,2.2,6.0,100,0.00,,BKN055,0.00,VWS V14.00,2013-09-14 12:00:00,
2013-09-14 08:20:00,55.2,55.2,30.05,NW,315,3.4,6.4,100,0.00,,BKN055,0.00,VWS V14.00,2013-09-14 12:20:00,
2013-09-14 08:40:00,56.8,55.3,30.06,NW,307,5.0,9.1,95,0.00,,BKN055,0.00,VWS V14.00,2013-09-14 12:40:00,
2013-09-14 09:00:00,57.0,54.2,30.06,SW,221,4.9,11.2,90,0.00,,BKN055,0.00,VWS V14.00,2013-09-14 13:00:00,
2013-09-14 09:20:00,57.4,53.4,30.07,WNW,295,0.0,8.7,86,0.00,,SCT055,0.00,VWS V14.00,2013-09-14 13:20:00,
2013-09-14 09:40:00,59.6,54.0,30.07,NW,326,0.0,8.9,82,0.00,,SCT055,0.00,VWS V14.00,2013-09-14 13:40:00,
2013-09-14 10:00:00,61.7,54.9,30.07,WNW,291,5.3,8.6,78,0.00,,SCT090,0.00,VWS V14.00,2013-09-14 14:00:00,
2013-09-14 10:20:00,62.3,53.7,30.07,WNW,301,5.6,11.2,73,0.00,,SCT090,0.00,VWS V14.00,2013-09-14 14:20:00,
2013-09-14 10:40:00,63.6,53.3,30.07,WNW,298,3.1,8.5,69,0.00,,SCT090,0.00,VWS V14.00,2013-09-14 14:40:00,
2013-09-14 11:00:00,63.1,51.7,30.07,NNW,330,0.0,7.5,66,0.00,,SCT090,0.00,VWS V14.00,2013-09-14 15:00:00,
2013-09-14 11:20:00,65.0,51.9,30.08,NW,309,6.6,6.8,63,0.00,,SCT090,0.00,VWS V14.00,2013-09-14 15:20:00,
2013-09-14 11:40:00,64.9,50.6,30.07,ENE,58,0.0,9.5,60,0.00,,SCT090,0.00,VWS V14.00,2013-09-14 15:40:00,
2013-09-14 12:00:00,65.2,50.4,30.08,WSW,256,0.0,11.1,59,0.00,,BKN037,0.00,VWS V14.00,2013-09-14 16:00:00,
2013-09-14 12:20:00,66.8,51.6,30.07,North,357,0.0,11.2,58,0.00,,BKN037,0.00,VWS V14.00,2013-09-14 16:20:00,
2013-09-14 12:40:00,66.9,50.7,30.08,NW,315,4.3,9.4,56,0.00,,BKN037,0.00,VWS V14.00,2013-09-14 16:40:00,
2013-09-14 13:00:00,67.1,51.1,30.08,North,1,0.0,12.4,56,0.00,,BKN043,0.00,VWS V14.00,2013-09-14 17:00:00,
2013-09-14 13:20:00,66.3,50.0,30.07,WNW,294,5.9,12.1,56,0.00,,BKN043,0.00,VWS V14.00,2013-09-14 17:20:00,
2013-09-14 13:40:00,67.9,51.3,30.08,NE,38,1.3,11.6,55,0.00,,BKN043,0.00,VWS V14.00,2013-09-14 17:40:00,
2013-09-14 14:00:00,68.5,49.8,30.07,NW,321,5.8,10.5,51,0.00,,BKN045,0.00,VWS V14.00,2013-09-14 18:00:00,
2013-09-14 14:20:00,68.5,50.2,30.07,NW,311,4.8,13.4,52,0.00,,BKN045,0.00,VWS V14.00,2013-09-14 18:20:00,
2013-09-14 14:40:00,69.3,50.0,30.06,NNW,339,0.0,12.4,50,0.00,,BKN045,0.00,VWS V14.00,2013-09-14 18:40:00,
2013-09-14 15:00:00,69.0,49.1,30.07,NW,321,4.3,11.3,49,0.00,,BKN047,0.00,VWS V14.00,2013-09-14 19:00:00,
2013-09-14 15:20:00,71.1,50.3,30.06,WNW,301,6.0,11.3,48,0.00,,BKN047,0.00,VWS V14.00,2013-09-14 19:20:00,
2013-09-14 15:40:00,71.0,49.7,30.05,NNW,330,0.0,8.6,47,0.00,,BKN047,0.00,VWS V14.00,2013-09-14 19:40:00,
2013-09-14 16:00:00,71.2,50.0,30.05,NNW,336,2.6,9.3,47,0.00,,SCT047,0.00,VWS V14.00,2013-09-14 20:00:00,
2013-09-14 16:20:00,71.5,50.5,30.06,NE,48,3.3,8.0,48,0.00,,SCT047,0.00,VWS V14.00,2013-09-14 20:20:00,
2013-09-14 16:39:00,71.0,49.7,30.06,SW,215,0.0,8.5,47,0.00,,SCT047,0.00,VWS V14.00,2013-09-14 20:39:00,
2013-09-14 17:00:00,70.5,50.1,30.06,West,260,2.3,7.1,48,0.00,,SCT047,0.00,VWS V14.00,2013-09-14 21:00:00,
2013-09-14 17:20:00,69.0,49.2,30.07,WNW,300,0.0,7.8,49,0.00,,FEW050,0.00,VWS V14.00,2013-09-14 21:20:00,
2013-09-14 17:40:00,67.7,49.2,30.08,NW,323,6.8,6.8,52,0.00,,FEW050,0.00,VWS V14.00,2013-09-14 21:40:00,
2013-09-14 18:00:00,66.9,51.1,30.08,NW,308,3.0,6.8,57,0.00,,FEW050,0.00,VWS V14.00,2013-09-14 22:00:00,
2013-09-14 18:20:00,65.6,50.5,30.08,NNE,15,0.0,7.0,58,0.00,,FEW050,0.00,VWS V14.00,2013-09-14 22:20:00,
2013-09-14 18:40:00,65.0,52.5,30.09,NNE,15,0.0,0.0,64,0.00,,FEW050,0.00,VWS V14.00,2013-09-14 22:40:00,
2013-09-14 19:00:00,63.2,53.4,30.09,NNE,15,0.0,0.0,70,0.00,,FEW055,0.00,VWS V14.00,2013-09-14 23:00:00,
2013-09-14 19:20:00,59.4,52.4,30.10,NNE,15,0.0,0.0,78,0.00,,FEW055,0.00,VWS V14.00,2013-09-14 23:20:00,
2013-09-14 19:40:00,59.2,53.6,30.10,NNE,15,0.0,0.0,82,0.00,,FEW055,0.00,VWS V14.00,2013-09-14 23:40:00,
2013-09-14 20:00:00,58.2,54.2,30.11,NNE,15,0.0,0.0,86,0.00,,FEW055,0.00,VWS V14.00,2013-09-15 00:00:00,
2013-09-14 20:20:00,57.8,55.1,30.12,NNE,15,0.0,0.0,91,0.00,,CLR,0.00,VWS V14.00,2013-09-15 00:20:00,
2013-09-14 20:40:00,56.5,54.2,30.13,NNE,15,0.0,0.0,92,0.00,,CLR,0.00,VWS V14.00,2013-09-15 00:40:00,
2013-09-14 21:00:00,56.4,54.7,30.14,NNE,15,0.0,0.0,94,0.00,,CLR,0.00,VWS V14.00,2013-09-15 01:00:00,
2013-09-14 21:20:00,55.3,54.0,30.15,NNE,15,0.0,0.0,96,0.00,,CLR,0.00,VWS V14.00,2013-09-15 01:20:00,
2013-09-14 21:40:00,55.0,54.2,30.15,NNE,15,0.0,0.0,97,0.00,,CLR,0.00,VWS V14.00,2013-09-15 01:40:00,
2013-09-14 22:00:00,54.8,54.4,30.15,NNE,15,0.0,0.0,98,0.00,,CLR,0.00,VWS V14.00,2013-09-15 02:00:00,
2013-09-14 22:20:00,54.4,54.4,30.15,NNE,15,0.0,0.0,100,0.00,,CLR,0.00,VWS V14.00,2013-09-15 02:20:00,
2013-09-14 22:40:00,52.4,52.4,30.16,NNE,15,0.0,0.0,100,0.00,,CLR,0.00,VWS V14.00,2013-09-15 02:40:00,
2013-09-14 23:00:00,52.9,52.9,30.16,NNE,15,0.0,0.0,100,0.00,,CLR,0.00,VWS V14.00,2013-09-15 03:00:00,
2013-09-14 23:20:00,51.9,51.9,30.17,NNE,15,0.0,0.0,100,0.00,,CLR,0.00,VWS V14.00,2013-09-15 03:20:00,
2013-09-14 23:40:00,52.9,52.9,30.17,NNE,15,0.0,0.0,100,0.00,,CLR,0.00,VWS V14.00,2013-09-15 03:40:00,